[[{"header":{"parameterUnit":"m.s-1","parameterCategory":1,"la1":30.2991,"la2":30.254,"lo1":-89.0895,"lo2":-89.0444,"dy":0.0017,"dx":0.0017,"nx":28,"ny":28,"refTime":"2025-04-25T03:00:00:Z","depth":0,"parameterNumber":2,"parameterNumberName":"U-component_of_WINDS"},"data":[0,0,0,0,0,0,0,0,0,0,0,0,0,0,0,0,0,0,0,0,0,0,0,0,0,0,0,0,0,0,0,0,0,0,0,0,0,0,0,0,0,0,0,0,0,0,0,0,0,0,0,0,0,0,0,0,0,0,0.9168,0.9169,0,0.9258,0.9259,0.926,0.9289,0.9289,0.9288,0.9288,0.9377,0.938,0.9382,0,0,0,0,0,0,0,0,0,0,0,0,0,0.9017,0.902,0.9168,0.9169,0.917,0.9258,0.9259,0.926,0.9289,0.9289,0.9288,0.9288,0.9376,0.9379,0.9383,0,0,0,0,0,0,0,0,0,0,0,0,0,0.9092,0.9021,0.9167,0.9195,0.9199,0.9257,0.9259,0.926,0.9289,0.9289,0.9288,0.9288,0.9375,0.9379,0.9383,0.942,0,0,0.9395,0.9397,0,0,0,0,0,0,0,0,0.9088,0.9098,0.919,0.9193,0.9197,0.9262,0.9238,0.9314,0.9289,0.9255,0.9288,0.9287,0.9339,0.9346,0.9364,0.9424,0.9428,0.9396,0.9398,0.94,0.9401,0,0,0,0,0,0,0,0.9083,0.9094,0.9203,0.9191,0.9196,0.9202,0.9212,0.9253,0.9299,0.9258,0.926,0.9271,0.9341,0.936,0.9366,0.9429,0.9396,0.9399,0.9402,0.9403,0.9523,0.9524,0,0,0,0,0,0,0.9074,0.909,0.92,0.9206,0.914,0.9205,0.9216,0.9242,0.9298,0.9307,0.9271,0.9272,0.9353,0.9361,0.9369,0.9416,0.94,0.9404,0.9406,0.9522,0.9523,0.9524,0,0,0,0,0,0,0.907,0.9083,0.9197,0.9149,0.9163,0.9208,0.9236,0.9244,0.9263,0.9309,0.9316,0.9282,0.9353,0.9364,0.9407,0.9419,0.9406,0.9409,0.9522,0.9523,0.9524,0.9509,0,0,0,0,0,0,0.9066,0.9082,0.9097,0.9149,0.9166,0.9234,0.9237,0.9246,0.927,0.9272,0.9321,0.9329,0.9353,0.9401,0.9411,0.9425,0.9413,0.9521,0.9522,0.9523,0.9509,0.951,0.9511,0,0,0,0,0,0.906,0.9089,0.9098,0.9111,0.9186,0.9235,0.9244,0.9273,0.9271,0.9286,0.9315,0.9327,0.9417,0.9405,0.9417,0.9432,0.952,0.9522,0.9523,0.9509,0.951,0.9511,0,0,0,0,0,0,0.9036,0.9096,0.9107,0.9153,0.9189,0.9239,0.9259,0.9273,0.9309,0.9309,0.9342,0.9353,0.9394,0.9417,0.9403,0.947,0.9469,0.9473,0.9454,0.9455,0.9456,0.9449,0.9416,0,0,0,0,0,0.9036,0.9072,0.9122,0.9158,0.9175,0.9214,0.9236,0.9255,0.9293,0.9308,0.934,0.9376,0.9412,0.9435,0.947,0.9513,0.9523,0.9529,0.953,0.953,0.9533,0.9557,0.9559,0.9529,0.9529,0.9529,0,0,0.9037,0.9074,0.9094,0.9154,0.9184,0.9219,0.9227,0.9263,0.9289,0.9313,0.9357,0.9381,0.9423,0.9466,0.9486,0.9487,0.9544,0.9532,0.9532,0.9535,0.9559,0.9561,0.9564,0.9531,0.953,0.953,0,0,0.9056,0.9088,0.9121,0.9151,0.9197,0.9222,0.923,0.9279,0.9297,0.9341,0.936,0.9391,0.9452,0.9481,0.9504,0.9533,0.9545,0.9544,0.9548,0.9571,0.9573,0.9575,0.9585,0.9589,0.9547,0.9547,0.9547,0,0.905,0.9105,0.9136,0.9172,0.9197,0.9222,0.9255,0.9282,0.9337,0.9353,0.9353,0.9431,0.946,0.951,0.9517,0.9535,0.9544,0.9538,0.957,0.9573,0.9575,0.9585,0.9589,0.9546,0.9546,0.9546,0.9546,0,0.9095,0.9133,0.9154,0.9207,0.9235,0.9269,0.9305,0.9329,0.9345,0.9371,0.9415,0.9451,0.9495,0.9508,0.9524,0.956,0.9559,0.9564,0.9563,0.9577,0.9587,0.9591,0.9545,0.9546,0.9546,0.9546,0,0,0.9101,0.9172,0.9179,0.9203,0.9255,0.9284,0.9319,0.9363,0.9383,0.9419,0.9449,0.95,0.9505,0.9531,0.955,0.957,0.9591,0.9573,0.9575,0.9575,0.9632,0.9628,0.9632,0.9599,0.96,0.9601,0.9628,0,0.9126,0.9192,0.9221,0.9272,0.9307,0.9331,0.9361,0.9395,0.942,0.9452,0.9479,0.9514,0.9519,0.9535,0.9555,0.9584,0.9603,0.9582,0.9626,0.9627,0.9615,0.9637,0.9632,0.9657,0.9633,0.9633,0.9634,0,0.9165,0.9203,0.9258,0.9306,0.9321,0.9348,0.939,0.9421,0.946,0.9477,0.9505,0.9524,0.956,0.9557,0.9608,0.9593,0.9613,0.9629,0.9631,0.9636,0.9631,0.9642,0.9665,0.9669,0.964,0.964,0.9639,0,0.9163,0.9228,0.9269,0.9289,0.9346,0.9364,0.9389,0.9428,0.9452,0.9488,0.9504,0.9544,0.9565,0.9595,0.9623,0.9619,0.9671,0.967,0.9685,0.9684,0.9694,0.9693,0.9721,0.9707,0.9707,0.9707,0.9707,0,0.9188,0.9221,0.9269,0.9295,0.9332,0.9364,0.94,0.9425,0.946,0.949,0.9512,0.954,0.9576,0.9607,0.963,0.9668,0.9677,0.9691,0.9696,0.9689,0.9687,0.9702,0.9701,0.9708,0.9708,0.9708,0.9708,0,0.9192,0.9226,0.9273,0.9323,0.9337,0.9362,0.9404,0.9429,0.9455,0.9492,0.9503,0.9543,0.9581,0.9613,0.9663,0.9678,0.9717,0.9724,0.9705,0.9707,0.972,0.9718,0.9758,0.9764,0.9747,0.9747,0.9747,0,0.9206,0.9232,0.9285,0.9308,0.9332,0.9368,0.9393,0.9425,0.945,0.9497,0.9516,0.9556,0.959,0.965,0.9683,0.9721,0.9729,0.974,0.9735,0.9726,0.9729,0.9727,0.9729,0.974,0.974,0.974,0.974,0,0.9226,0.9242,0.9278,0.932,0.9349,0.9384,0.9418,0.9435,0.9474,0.95,0.9541,0.9567,0.9619,0.9658,0.97,0.9724,0.9738,0.9742,0.9747,0.974,0.9727,0.9734,0.9705,0.9741,0.9741,0.9741,0.9741,0.9741,0.9235,0.926,0.9301,0.934,0.937,0.9402,0.9428,0.9457,0.9492,0.9537,0.9554,0.9595,0.9633,0.9691,0.9715,0.9747,0.9748,0.9756,0.9758,0.9759,0.9758,0.9722,0.9754,0.9754,0.9754,0.9754,0.9754,0,0.9257,0.9285,0.9321,0.9369,0.94,0.9412,0.9451,0.9475,0.9511,0.9546,0.958,0.9625,0.9664,0.97,0.9739,0.9758,0.9765,0.9767,0.9766,0.9771,0.9754,0.9746,0.976,0.976,0.976,0.976,0.976,0.976,0.9271,0.9313,0.9333,0.9389,0.9417,0.9458,0.9479,0.9508,0.9536,0.9587,0.9619,0.9643,0.9678,0.972,0.9756,0.9765,0.9778,0.9778,0.9789,0.9773,0.9772,0.9771,0.9763,0.9781,0.9781,0.9803,0.9803,0.9804]},{"header":{"parameterUnit":"m.s-1","parameterCategory":1,"la1":30.2991,"la2":30.254,"lo1":-89.0895,"lo2":-89.0444,"dy":0.0017,"dx":0.0017,"nx":28,"ny":28,"refTime":"2025-04-25T03:00:00:Z","depth":0,"parameterNumber":3,"parameterNumberName":"V-component_of_WINDS"},"data":[0,0,0,0,0,0,0,0,0,0,0,0,0,0,0,0,0,0,0,0,0,0,0,0,0,0,0,0,0,0,0,0,0,0,0,0,0,0,0,0,0,0,0,0,0,0,0,0,0,0,0,0,0,0,0,0,0,0,3.2885,3.2885,0,3.2911,3.2911,3.2911,3.2859,3.2857,3.2855,3.2854,3.2878,3.288,3.2882,0,0,0,0,0,0,0,0,0,0,0,0,0,3.2788,3.279,3.2885,3.2885,3.2886,3.2911,3.2911,3.2911,3.2859,3.2857,3.2855,3.2853,3.2877,3.288,3.2883,0,0,0,0,0,0,0,0,0,0,0,0,0,3.2823,3.2791,3.2885,3.2863,3.2861,3.2911,3.2911,3.2911,3.2859,3.2857,3.2854,3.2852,3.2876,3.288,3.2883,3.2955,0,0,3.2893,3.2895,0,0,0,0,0,0,0,0,3.2822,3.2827,3.2866,3.2864,3.2862,3.2879,3.2886,3.2926,3.286,3.286,3.2854,3.2851,3.288,3.2883,3.2894,3.2956,3.2957,3.2894,3.2896,3.2897,3.2898,0,0,0,0,0,0,0,3.2819,3.2826,3.2895,3.2866,3.2864,3.285,3.2853,3.2893,3.2884,3.286,3.2856,3.286,3.2879,3.289,3.2894,3.2958,3.2893,3.2896,3.2899,3.29,3.308,3.3082,0,0,0,0,0,0,3.282,3.2824,3.2894,3.2896,3.2835,3.2854,3.2857,3.2876,3.2883,3.2882,3.2862,3.2857,3.2886,3.289,3.2894,3.2979,3.2897,3.29,3.2902,3.3077,3.308,3.3083,0,0,0,0,0,0,3.2818,3.2827,3.2893,3.2859,3.2866,3.2859,3.2881,3.2878,3.2889,3.2885,3.2883,3.2876,3.2884,3.289,3.294,3.2979,3.2902,3.2905,3.3074,3.3078,3.3082,3.3149,0,0,0,0,0,0,3.2815,3.2826,3.2854,3.286,3.2868,3.294,3.2883,3.288,3.2896,3.289,3.2897,3.2896,3.2882,3.2936,3.2944,3.2982,3.2907,3.307,3.3075,3.308,3.3143,3.3155,3.3165,0,0,0,0,0,3.2812,3.2872,3.2856,3.2865,3.2904,3.2942,3.2947,3.293,3.2899,3.2927,3.2924,3.2896,3.2973,3.2941,3.295,3.299,3.3068,3.3074,3.308,3.3138,3.3152,3.3164,0,0,0,0,0,0,3.2871,3.2872,3.2855,3.2919,3.2931,3.2933,3.2968,3.2946,3.2967,3.296,3.2938,3.294,3.2995,3.2997,3.2962,3.3059,3.3015,3.3023,3.3056,3.307,3.308,3.3079,3.291,0,0,0,0,0,3.2891,3.2924,3.2923,3.2979,3.2986,3.2976,3.2992,3.2978,3.299,3.2994,3.2995,3.3007,3.3033,3.3051,3.3076,3.3143,3.3143,3.3174,3.3185,3.3194,3.3202,3.3236,3.325,3.3103,3.3103,3.3103,0,0,3.2934,3.2939,3.296,3.2991,3.2999,3.3031,3.2981,3.3018,3.3042,3.3,3.3048,3.3049,3.306,3.3119,3.3145,3.3122,3.3242,3.3202,3.3209,3.3212,3.3244,3.3258,3.327,3.3108,3.3107,3.3106,0,0,3.3028,3.3036,3.3083,3.3092,3.3104,3.3097,3.3108,3.3114,3.3113,3.3161,3.313,3.3157,3.3204,3.3213,3.3224,3.332,3.3295,3.3328,3.3385,3.3419,3.3431,3.3441,3.3475,3.3488,3.3336,3.3336,3.3336,0,3.308,3.3129,3.311,3.3149,3.3163,3.3127,3.3174,3.3183,3.3202,3.3212,3.3187,3.3244,3.3249,3.331,3.3333,3.3343,3.3355,3.3328,3.3431,3.3441,3.345,3.3482,3.3495,3.334,3.334,3.3339,3.3339,0,3.3191,3.3225,3.3262,3.3282,3.33,3.3343,3.3329,3.335,3.3334,3.3329,3.3377,3.3382,3.3406,3.3419,3.3404,3.3477,3.3463,3.3434,3.3389,3.3468,3.3498,3.351,3.3346,3.3344,3.3343,3.3342,0,0,3.3325,3.3333,3.3347,3.3355,3.3365,3.3391,3.3431,3.3456,3.3473,3.3487,3.352,3.356,3.3534,3.3546,3.3531,3.3561,3.3637,3.3529,3.3529,3.3549,3.3717,3.3739,3.3753,3.362,3.3622,3.3624,3.3716,0,3.3418,3.3489,3.3472,3.3542,3.3573,3.3538,3.3573,3.3583,3.3579,3.3604,3.3599,3.3627,3.359,3.3597,3.3625,3.3622,3.367,3.3615,3.365,3.3652,3.3649,3.3769,3.3792,3.3879,3.3728,3.373,3.3731,0,3.3537,3.3556,3.3629,3.3633,3.3646,3.3678,3.3698,3.3722,3.3732,3.3727,3.374,3.3719,3.3758,3.3712,3.3765,3.3728,3.3741,3.3741,3.3744,3.3747,3.3697,3.3775,3.3906,3.3919,3.3749,3.3748,3.3746,0,3.3628,3.3671,3.372,3.3728,3.3734,3.3758,3.3761,3.3768,3.3783,3.3801,3.381,3.3832,3.3844,3.386,3.3845,3.3813,3.39,3.3853,3.3897,3.3897,3.3918,3.3917,3.4053,3.3926,3.3925,3.3925,3.3925,0,3.3734,3.378,3.3761,3.3791,3.3841,3.382,3.387,3.3869,3.3876,3.3904,3.3875,3.3902,3.3881,3.3906,3.3894,3.394,3.3945,3.3942,3.3938,3.3945,3.3945,3.3954,3.3947,3.3929,3.3928,3.3927,3.3927,0,3.3844,3.3833,3.3884,3.3885,3.3886,3.3923,3.3924,3.3951,3.3945,3.3981,3.3989,3.3978,3.4006,3.3993,3.4022,3.4014,3.4073,3.4061,3.407,3.4067,3.4111,3.4108,3.4258,3.4276,3.4137,3.4139,3.414,0,3.3913,3.3948,3.3952,3.397,3.3975,3.4004,3.4019,3.3999,3.4016,3.4029,3.4055,3.408,3.41,3.4146,3.4141,3.4163,3.4151,3.4202,3.4155,3.416,3.4152,3.4151,3.4154,3.4212,3.4214,3.4215,3.4216,0,3.4037,3.4029,3.4053,3.4074,3.4093,3.4109,3.4122,3.4138,3.4118,3.4139,3.4167,3.4182,3.4212,3.4238,3.4256,3.4259,3.4235,3.4231,3.4243,3.425,3.4254,3.4253,3.4097,3.4228,3.4227,3.4226,3.4226,3.4225,3.4128,3.4157,3.4165,3.4192,3.4199,3.4212,3.4238,3.4234,3.4258,3.4281,3.4267,3.43,3.4308,3.433,3.4336,3.4361,3.4341,3.4357,3.4361,3.4366,3.4372,3.425,3.4365,3.4364,3.4364,3.4364,3.4363,0,3.4251,3.4254,3.4279,3.4298,3.4318,3.4293,3.4306,3.4325,3.4355,3.4364,3.4384,3.4416,3.444,3.4436,3.4458,3.4479,3.4468,3.4485,3.4484,3.4485,3.4389,3.4377,3.4494,3.4494,3.4494,3.4494,3.4494,3.4493,3.4317,3.4364,3.4357,3.4407,3.441,3.4442,3.4452,3.4463,3.447,3.4507,3.4527,3.4525,3.4528,3.455,3.4571,3.4569,3.4578,3.46,3.4594,3.4504,3.4492,3.4479,3.4468,3.4602,3.4602,3.4688,3.4688,3.4689]}]]